cubair logo

For once you have tasted flight you will walk the earth with your eyes turned skywards,
for there you have been and there you will long to return.


"Leonardo da Vinci"

Welcome To CubAir Flight!

Cub Air Flight was founded in 2006, by Steve and Sharon Krog. Cub Air Flight school uses vintage Piper J3 Cub aircraft to instruct in, following a philosophy that “old school is still cool.” Cub Air Flight believes that these fine classic airplanes make better pilots by requiring more attention and flying skill than newer airplanes. We at Cub Air Flight hold that flying a vintage airplane is as much an art as it is a science.

The Piper J3 Cub is revered among aviators as a truly classic and iconic airplane. It has served as a trainer to more pilots than almost any airplane, earning a reputation as easy to fly but yet challenging enough to force students to continually better themselves. Cub Air uses two J3 Cubs, restored and maintained with the same attention to detail as a lovingly restored classic car. Cub Air also uses a Piper Cherokee for training requiring an aircraft with more advanced instruments.

Come fly with us and feel the freedom of
flying, the way it's supposed to be!


"Old School Is Still Cool!"

 

Our Instructors

Steve Krog

Find Us Here!

Hartford Municipal

Airport (KHXF)

4200 Highway U

Hartford, WI 53027

Our Staff

Steve Krog
Sharon Krog
Jamie Weber
Chris Hibben

Oshkosh Weather

[Source: ADDS]
METAR
KOSH 292053Z 05015G21KT 10SM CLR 07/M01 A3025 RMK AO2 SLP249 T00721011 58007 $ =
TAF

West Bend Weather

[Source: ADDS]
METAR
KETB 292055Z AUTO 03013G21KT 10SM OVC100 04/00 A3021 RMK AO2 =
TAF

Juneau Weather

[Source: ADDS]
METAR
KUNU 292055Z AUTO 02012G22KT 10SM SCT055 SCT075 BKN090 06/00 A3021 RMK AO2 T00571001 =
TAF

Fond Du Lac Weather

[Source: ADDS]
METAR
KFLD 292053Z AUTO 04022G27KT 10SM CLR 07/M02 A3021 RMK AO2 PK WND 04027/2053 PRESFR SLP238 T00671017 58015 =
TAF